DLH055 EDDW-EDDF

Flight info

Callsign DLH055
Flight time 0h 37m
Altitude 19000
Route NIE6Z/27 NIE Z88 SAS P605 NORTA T154 ROBAR Z190 GAPLA/N0394F180 T178 KERAX
Aircraft A319/M-SDE3FGHIRWY/LB1

Departure

Time 2026-04-14 21:22
Airport Bremen Airport (EDDW)

Arrival

Time 2026-04-14 21:59
Airport Frankfurt Main Airport (EDDF)
Time Latitude Longitude Altitude Speed Heading
2026-04-14 21:21 52.84064 8.98694 11834 ft 376 kts 134°
2026-04-14 21:22 52.82275 9.01919 12568 ft 383 kts 134°
2026-04-14 21:22 52.80460 9.05186 13356 ft 388 kts 134°
2026-04-14 21:22 52.79247 9.07370 13888 ft 391 kts 134°
2026-04-14 21:22 52.76763 9.11839 14788 ft 399 kts 134°
2026-04-14 21:23 52.74868 9.15238 15471 ft 404 kts 134°
2026-04-14 21:23 52.73606 9.17498 15932 ft 407 kts 134°
2026-04-14 21:23 52.71679 9.20949 16631 ft 411 kts 134°
2026-04-14 21:23 52.69728 9.24440 17324 ft 415 kts 134°
2026-04-14 21:24 52.67122 9.29106 18250 ft 421 kts 134°
2026-04-14 21:24 52.65126 9.32672 18880 ft 425 kts 134°
2026-04-14 21:24 52.63768 9.35095 19249 ft 428 kts 134°
2026-04-14 21:24 52.61634 9.38531 19814 ft 431 kts 141°
2026-04-14 21:25 52.59324 9.41707 20372 ft 434 kts 141°
2026-04-14 21:25 52.57016 9.44872 20901 ft 438 kts 141°
2026-04-14 21:25 52.54659 9.48103 21420 ft 443 kts 141°
2026-04-14 21:25 52.52283 9.51361 21928 ft 446 kts 141°
2026-04-14 21:26 52.49894 9.54645 22428 ft 450 kts 140°
2026-04-14 21:26 52.47474 9.57974 22911 ft 454 kts 140°
2026-04-14 21:26 52.45009 9.61245 23378 ft 458 kts 146°
2026-04-14 21:26 52.42173 9.63631 23813 ft 460 kts 162°
2026-04-14 21:27 52.39049 9.64686 24205 ft 460 kts 179°
2026-04-14 21:27 52.35851 9.64490 24575 ft 461 kts 187°
2026-04-14 21:27 52.32688 9.64046 24953 ft 464 kts 187°
2026-04-14 21:27 52.29421 9.63569 25218 ft 467 kts 187°
2026-04-14 21:28 52.26205 9.63097 25274 ft 475 kts 187°
2026-04-14 21:28 52.22874 9.62711 25279 ft 483 kts 185°
2026-04-14 21:28 52.19506 9.62528 25280 ft 485 kts 183°
2026-04-14 21:28 52.16123 9.62490 25281 ft 486 kts 182°
2026-04-14 21:29 52.12737 9.62517 25271 ft 487 kts 181°
2026-04-14 21:29 52.09350 9.62546 25284 ft 486 kts 181°
2026-04-14 21:29 52.05967 9.62544 25283 ft 486 kts 182°
2026-04-14 21:29 52.02587 9.62498 25282 ft 486 kts 182°
2026-04-14 21:30 51.99202 9.62418 25283 ft 486 kts 183°
2026-04-14 21:30 51.95817 9.62321 25279 ft 486 kts 183°
2026-04-14 21:30 51.92432 9.62220 25277 ft 486 kts 183°
2026-04-14 21:30 51.89052 9.62123 25271 ft 486 kts 183°
2026-04-14 21:31 51.85669 9.62034 25270 ft 486 kts 182°
2026-04-14 21:31 51.82289 9.61955 25268 ft 486 kts 182°
2026-04-14 21:31 51.78910 9.61884 25271 ft 486 kts 182°
2026-04-14 21:31 51.75572 9.61815 25273 ft 486 kts 182°
2026-04-14 21:32 51.72189 9.61744 25269 ft 486 kts 182°
2026-04-14 21:32 51.68806 9.61671 25268 ft 485 kts 182°
2026-04-14 21:32 51.65434 9.61597 25267 ft 485 kts 182°
2026-04-14 21:32 51.62052 9.61522 25258 ft 485 kts 182°
2026-04-14 21:33 51.58677 9.61446 25260 ft 485 kts 182°
2026-04-14 21:33 51.55297 9.61368 25257 ft 485 kts 182°
2026-04-14 21:33 51.51921 9.61291 25263 ft 485 kts 182°
2026-04-14 21:33 51.48539 9.61211 25259 ft 485 kts 182°
2026-04-14 21:34 51.45165 9.61128 25265 ft 485 kts 182°
2026-04-14 21:34 51.41790 9.61049 25273 ft 485 kts 182°
2026-04-14 21:34 51.38417 9.60973 25265 ft 485 kts 182°
2026-04-14 21:34 51.35046 9.60900 25270 ft 484 kts 182°
2026-04-14 21:35 51.31679 9.60826 25267 ft 484 kts 182°
2026-04-14 21:35 51.28317 9.60754 25269 ft 484 kts 182°
2026-04-14 21:35 51.24952 9.60680 25264 ft 484 kts 182°
2026-04-14 21:35 51.21582 9.60608 25267 ft 483 kts 182°
2026-04-14 21:36 51.18224 9.60536 25266 ft 483 kts 182°
2026-04-14 21:36 51.14861 9.60462 25257 ft 483 kts 182°
2026-04-14 21:36 51.11501 9.60386 25256 ft 483 kts 182°
2026-04-14 21:36 51.08176 9.60312 25257 ft 483 kts 182°
2026-04-14 21:37 51.04814 9.60234 25256 ft 483 kts 182°
2026-04-14 21:37 51.01448 9.60156 25255 ft 483 kts 182°
2026-04-14 21:37 50.98081 9.60085 25256 ft 483 kts 182°
2026-04-14 21:37 50.94715 9.60015 25252 ft 483 kts 182°
2026-04-14 21:38 50.91352 9.59944 25250 ft 483 kts 182°
2026-04-14 21:38 50.87982 9.59865 25252 ft 484 kts 182°
2026-04-14 21:38 50.84622 9.59787 25253 ft 484 kts 182°
2026-04-14 21:38 50.81252 9.59715 25253 ft 484 kts 181°
2026-04-14 21:39 50.77892 9.59644 25255 ft 484 kts 182°
2026-04-14 21:39 50.74518 9.59571 25257 ft 484 kts 182°
2026-04-14 21:39 50.71146 9.59500 25257 ft 484 kts 181°
2026-04-14 21:39 50.67778 9.59430 25258 ft 484 kts 181°
2026-04-14 21:40 50.64408 9.59360 25254 ft 484 kts 181°
2026-04-14 21:40 50.61045 9.59287 25259 ft 484 kts 182°
2026-04-14 21:40 50.57674 9.59211 25259 ft 484 kts 182°
2026-04-14 21:40 50.54311 9.59136 25250 ft 484 kts 182°
2026-04-14 21:41 50.50943 9.58988 25254 ft 483 kts 185°
2026-04-14 21:41 50.47631 9.58222 25237 ft 481 kts 195°
2026-04-14 21:41 50.44622 9.56195 25234 ft 476 kts 216°
2026-04-14 21:41 50.42228 9.52685 25234 ft 469 kts 236°
2026-04-14 21:42 50.40666 9.48254 24914 ft 460 kts 248°
2026-04-14 21:42 50.39256 9.43762 23927 ft 459 kts 245°
2026-04-14 21:42 50.37726 9.39406 23004 ft 453 kts 242°
2026-04-14 21:42 50.36133 9.35184 22140 ft 447 kts 240°
2026-04-14 21:43 50.34526 9.31047 21340 ft 441 kts 240°
2026-04-14 21:43 50.32944 9.26972 20564 ft 436 kts 240°
2026-04-14 21:43 50.31402 9.22928 19806 ft 430 kts 240°
2026-04-14 21:43 50.29896 9.18903 19081 ft 425 kts 240°
2026-04-14 21:44 50.28427 9.14923 18352 ft 420 kts 241°
2026-04-14 21:44 50.27068 9.10904 17556 ft 416 kts 247°
2026-04-14 21:44 50.26055 9.06689 16822 ft 412 kts 251°
2026-04-14 21:44 50.25089 9.02483 16125 ft 410 kts 251°
2026-04-14 21:45 50.24115 8.98312 15485 ft 407 kts 251°
2026-04-14 21:45 50.23142 8.94189 14852 ft 404 kts 251°
2026-04-14 21:45 50.22172 8.90081 14210 ft 401 kts 251°
2026-04-14 21:45 50.21211 8.86023 13525 ft 397 kts 251°
2026-04-14 21:46 50.20255 8.81989 12861 ft 392 kts 251°
2026-04-14 21:46 50.19318 8.78033 12192 ft 387 kts 250°
2026-04-14 21:46 50.18393 8.74124 11520 ft 381 kts 250°
2026-04-14 21:46 50.17482 8.70270 10846 ft 375 kts 250°
2026-04-14 21:47 50.16603 8.66553 10469 ft 362 kts 250°
2026-04-14 21:47 50.15747 8.62948 10459 ft 338 kts 250°
2026-04-14 21:47 50.14962 8.59657 10457 ft 318 kts 250°
2026-04-14 21:47 50.14214 8.56518 10452 ft 300 kts 250°
2026-04-14 21:48 50.13502 8.53537 10328 ft 288 kts 249°
2026-04-14 21:48 50.12809 8.50643 10033 ft 283 kts 249°
2026-04-14 21:48 50.12125 8.47783 9638 ft 280 kts 250°
2026-04-14 21:48 50.11446 8.44939 9240 ft 279 kts 250°
2026-04-14 21:49 50.10769 8.42118 8803 ft 277 kts 249°
2026-04-14 21:49 50.10092 8.39309 8375 ft 276 kts 249°
2026-04-14 21:49 50.09416 8.36512 7930 ft 276 kts 249°
2026-04-14 21:49 50.08739 8.33713 7479 ft 276 kts 249°
2026-04-14 21:50 50.08059 8.30916 7046 ft 276 kts 249°
2026-04-14 21:50 50.07380 8.28125 6606 ft 275 kts 249°
2026-04-14 21:50 50.06703 8.25339 6150 ft 274 kts 249°
2026-04-14 21:50 50.06053 8.22657 5992 ft 262 kts 249°
2026-04-14 21:51 50.05416 8.20037 5857 ft 249 kts 249°
2026-04-14 21:51 50.04818 8.17592 5689 ft 240 kts 248°
2026-04-14 21:51 50.04236 8.15222 5550 ft 229 kts 248°
2026-04-14 21:51 50.03428 8.13187 5425 ft 217 kts 219°
2026-04-14 21:52 50.02116 8.12221 5280 ft 206 kts 190°
2026-04-14 21:52 50.00710 8.11903 5084 ft 203 kts 184°
2026-04-14 21:52 49.99306 8.11672 4995 ft 203 kts 184°
2026-04-14 21:52 49.97907 8.11705 4997 ft 201 kts 163°
2026-04-14 21:53 49.96634 8.12545 4995 ft 199 kts 141°
2026-04-14 21:53 49.95853 8.14258 5005 ft 196 kts 108°
2026-04-14 21:53 49.95716 8.16345 5000 ft 196 kts 82°
2026-04-14 21:53 49.96118 8.18372 4831 ft 197 kts 69°
2026-04-14 21:54 49.96611 8.20355 4573 ft 196 kts 69°
2026-04-14 21:54 49.97098 8.22342 4294 ft 197 kts 69°
2026-04-14 21:54 49.97584 8.24338 4019 ft 197 kts 70°
2026-04-14 21:54 49.98057 8.26284 3740 ft 194 kts 70°
2026-04-14 21:55 49.98526 8.28222 3453 ft 189 kts 70°
2026-04-14 21:55 49.98985 8.30116 3180 ft 185 kts 70°
2026-04-14 21:55 49.99433 8.31969 2912 ft 182 kts 70°
2026-04-14 21:55 49.99873 8.33787 2651 ft 176 kts 70°
2026-04-14 21:56 50.00286 8.35497 2415 ft 160 kts 70°
2026-04-14 21:56 50.00650 8.37006 2189 ft 139 kts 70°
2026-04-14 21:56 50.00972 8.38340 1997 ft 126 kts 70°
2026-04-14 21:56 50.01273 8.39590 1815 ft 122 kts 69°
2026-04-14 21:57 50.01568 8.40816 1644 ft 121 kts 69°
2026-04-14 21:57 50.01861 8.42035 1468 ft 120 kts 69°
2026-04-14 21:57 50.02155 8.43255 1289 ft 121 kts 69°
2026-04-14 21:57 50.02448 8.44472 1116 ft 122 kts 69°
2026-04-14 21:58 50.02747 8.45722 950 ft 124 kts 70°
2026-04-14 21:58 50.03055 8.46993 768 ft 127 kts 70°
2026-04-14 21:58 50.03372 8.48305 571 ft 131 kts 70°
2026-04-14 21:58 50.03690 8.49631 399 ft 130 kts 71°
2026-04-14 21:59 50.03982 8.50856 350 ft 103 kts 69°
2026-04-14 21:59 50.04173 8.51651 355 ft 59 kts 69°
2026-04-14 21:59 50.04309 8.52213 348 ft 53 kts 69°
2026-04-14 21:59 50.04396 8.52658 348 ft 36 kts 85°
2026-04-14 22:00 50.04373 8.53037 346 ft 33 kts 101°
2026-04-14 22:00 50.04359 8.53327 355 ft 23 kts 73°
2026-04-14 22:00 50.04400 8.53538 362 ft 19 kts 83°
2026-04-14 22:00 50.04414 8.53740 364 ft 19 kts 83°
2026-04-14 22:01 50.04429 8.53964 364 ft 23 kts 84°
2026-04-14 22:01 50.04446 8.54221 359 ft 25 kts 84°
2026-04-14 22:01 50.04452 8.54503 359 ft 26 kts 101°
2026-04-14 22:01 50.04355 8.54737 359 ft 26 kts 145°
2026-04-14 22:02 50.04190 8.54845 351 ft 24 kts 161°
2026-04-14 22:02 50.04053 8.54923 346 ft 14 kts 159°
2026-04-14 22:02 50.04028 8.55047 350 ft 15 kts 66°
2026-04-14 22:02 50.04067 8.55207 346 ft 17 kts 69°
2026-04-14 22:03 50.04114 8.55400 350 ft 21 kts 69°
2026-04-14 22:03 50.04165 8.55616 347 ft 22 kts 70°
2026-04-14 22:03 50.04220 8.55848 349 ft 24 kts 69°
2026-04-14 22:03 50.04269 8.56047 346 ft 13 kts 62°
2026-04-14 22:04 50.04354 8.56052 354 ft 14 kts 340°
2026-04-14 22:04 50.04445 8.56069 352 ft 15 kts 58°
2026-04-14 22:04 50.04471 8.56183 352 ft 10 kts 69°
2026-04-14 22:04 50.04496 8.56296 346 ft 12 kts 70°
2026-04-14 22:05 50.04523 8.56397 347 ft 1 kts 64°
2026-04-14 22:05 50.04528 8.56413 347 ft 3 kts 62°
2026-04-14 22:05 50.04547 8.56439 349 ft 6 kts 27°
2026-04-14 22:05 50.04588 8.56468 346 ft 7 kts 25°
2026-04-14 22:06 50.04620 8.56526 347 ft 7 kts 103°
2026-04-14 22:06 50.04594 8.56596 352 ft 4 kts 114°
2026-04-14 22:06 50.04585 8.56626 351 ft 0 kts 115°